Time,TemperatureF,DewpointF,PressureIn,WindDirection,WindDirectionDegrees,WindSpeedMPH,WindSpeedGustMPH,Humidity,HourlyPrecipIn,Conditions,Clouds,dailyrainin,SoftwareType,DateUTC
2013-01-19 00:00:00,37.0,28.0,-100.00,NE,50,3.0,6.0,68,-99.99,,,-99.99,,2013-01-19 05:00:00,
2013-01-19 00:10:00,38.0,28.0,-100.00,NNE,15,3.0,9.0,68,-99.99,,,-99.99,,2013-01-19 05:10:00,
2013-01-19 00:20:00,39.0,29.0,-100.00,NE,35,1.0,9.0,67,-99.99,,,-99.99,,2013-01-19 05:20:00,
2013-01-19 00:30:00,40.0,29.0,-100.00,NE,40,4.0,9.0,64,-99.99,,,-99.99,,2013-01-19 05:30:00,
2013-01-19 00:40:00,40.0,28.0,-100.00,NNE,30,3.0,8.0,63,-99.99,,,-99.99,,2013-01-19 05:40:00,
2013-01-19 00:50:00,40.0,28.0,-100.00,NE,35,1.0,9.0,62,-99.99,,,-99.99,,2013-01-19 05:50:00,
2013-01-19 01:00:00,40.0,28.0,-100.00,NE,35,2.0,6.0,63,-99.99,,,-99.99,,2013-01-19 06:00:00,
2013-01-19 01:10:00,40.0,28.0,-100.00,NE,40,1.0,4.0,63,-99.99,,,-99.99,,2013-01-19 06:10:00,
2013-01-19 01:20:00,39.0,28.0,-100.00,NNE,20,1.0,4.0,64,-99.99,,,-99.99,,2013-01-19 06:20:00,
2013-01-19 01:30:00,39.0,28.0,-100.00,NE,35,0.0,4.0,65,-99.99,,,-99.99,,2013-01-19 06:30:00,
2013-01-19 01:40:00,38.0,28.0,-100.00,NE,55,1.0,3.0,66,-99.99,,,-99.99,,2013-01-19 06:40:00,
2013-01-19 01:50:00,38.0,28.0,-100.00,NNE,30,2.0,5.0,67,-99.99,,,-99.99,,2013-01-19 06:50:00,
2013-01-19 02:00:00,38.0,28.0,-100.00,NNE,15,1.0,9.0,67,-99.99,,,-99.99,,2013-01-19 07:00:00,
2013-01-19 02:10:00,38.0,28.0,-100.00,NE,45,1.0,4.0,67,-99.99,,,-99.99,,2013-01-19 07:10:00,
2013-01-19 02:20:00,38.0,29.0,-100.00,ENE,70,0.0,4.0,68,-99.99,,,-99.99,,2013-01-19 07:20:00,
2013-01-19 02:30:00,38.0,29.0,-100.00,NNE,30,2.0,5.0,69,-99.99,,,-99.99,,2013-01-19 07:30:00,
2013-01-19 02:40:00,38.0,29.0,-100.00,NE,40,3.0,6.0,70,-99.99,,,-99.99,,2013-01-19 07:40:00,
2013-01-19 03:00:00,38.0,30.0,-100.00,NE,45,3.0,6.0,70,-99.99,,,-99.99,,2013-01-19 08:00:00,
2013-01-19 03:10:00,38.0,29.0,-100.00,NNE,30,0.0,7.0,70,-99.99,,,-99.99,,2013-01-19 08:10:00,
2013-01-19 03:20:00,38.0,30.0,-100.00,NNE,25,4.0,8.0,71,-99.99,,,-99.99,,2013-01-19 08:20:00,
2013-01-19 03:30:00,38.0,29.0,-100.00,NNE,30,1.0,8.0,71,-99.99,,,-99.99,,2013-01-19 08:30:00,
2013-01-19 03:40:00,38.0,30.0,-100.00,NE,35,4.0,6.0,72,-99.99,,,-99.99,,2013-01-19 08:40:00,
2013-01-19 03:50:00,37.0,29.0,-100.00,NNW,335,0.0,5.0,72,-99.99,,,-99.99,,2013-01-19 08:50:00,
2013-01-19 04:00:00,37.0,30.0,-100.00,North,10,0.0,1.0,73,-99.99,,,-99.99,,2013-01-19 09:00:00,
2013-01-19 04:10:00,37.0,29.0,-100.00,North,0,0.0,2.0,73,-99.99,,,-99.99,,2013-01-19 09:10:00,
2013-01-19 04:20:00,37.0,29.0,-100.00,North,355,0.0,1.0,73,-99.99,,,-99.99,,2013-01-19 09:20:00,
2013-01-19 04:30:00,36.0,29.0,-100.00,NNE,30,0.0,4.0,74,-99.99,,,-99.99,,2013-01-19 09:30:00,
2013-01-19 04:40:00,36.0,29.0,-100.00,NE,35,2.0,4.0,74,-99.99,,,-99.99,,2013-01-19 09:40:00,
2013-01-19 04:50:00,36.0,29.0,-100.00,NE,35,1.0,2.0,75,-99.99,,,-99.99,,2013-01-19 09:50:00,
2013-01-19 05:00:00,36.0,29.0,-100.00,North,10,0.0,3.0,75,-99.99,,,-99.99,,2013-01-19 10:00:00,
2013-01-19 05:10:00,36.0,29.0,-100.00,NE,40,2.0,6.0,76,-99.99,,,-99.99,,2013-01-19 10:10:00,
2013-01-19 06:10:00,36.0,29.0,-100.00,NE,50,2.0,4.0,77,-99.99,,,-99.99,,2013-01-19 11:10:00,
2013-01-19 06:40:00,35.0,29.0,-100.00,NE,40,3.0,5.0,77,-99.99,,,-99.99,,2013-01-19 11:40:00,
2013-01-19 06:50:00,35.0,29.0,-100.00,NE,45,4.0,5.0,78,-99.99,,,-99.99,,2013-01-19 11:50:00,
2013-01-19 07:00:00,35.0,29.0,-100.00,NNE,25,0.0,6.0,79,-99.99,,,-99.99,,2013-01-19 12:00:00,
2013-01-19 07:10:00,35.0,29.0,-100.00,NE,35,4.0,6.0,79,-99.99,,,-99.99,,2013-01-19 12:10:00,
2013-01-19 07:20:00,35.0,30.0,-100.00,NE,35,4.0,7.0,80,-99.99,,,-99.99,,2013-01-19 12:20:00,
2013-01-19 07:40:00,37.0,31.0,-100.00,NE,55,4.0,6.0,78,-99.99,,,-99.99,,2013-01-19 12:40:00,
2013-01-19 07:50:00,38.0,31.0,-100.00,NE,55,4.0,9.0,74,-99.99,,,-99.99,,2013-01-19 12:50:00,
2013-01-19 08:00:00,40.0,31.0,-100.00,NE,45,4.0,9.0,71,-99.99,,,-99.99,,2013-01-19 13:00:00,
2013-01-19 08:10:00,42.0,31.0,-100.00,NE,50,4.0,11.0,66,-99.99,,,-99.99,,2013-01-19 13:10:00,
2013-01-19 08:20:00,43.0,31.0,-100.00,North,5,2.0,11.0,61,-99.99,,,-99.99,,2013-01-19 13:20:00,
2013-01-19 08:40:00,47.0,30.0,-100.00,NE,35,3.0,6.0,52,-99.99,,,-99.99,,2013-01-19 13:40:00,
2013-01-19 08:50:00,48.0,30.0,-100.00,NE,55,2.0,7.0,49,-99.99,,,-99.99,,2013-01-19 13:50:00,
2013-01-19 09:00:00,49.0,29.0,-100.00,NE,40,5.0,9.0,46,-99.99,,,-99.99,,2013-01-19 14:00:00,
2013-01-19 09:10:00,49.0,28.0,-100.00,NE,40,5.0,11.0,43,-99.99,,,-99.99,,2013-01-19 14:10:00,
2013-01-19 09:20:00,51.0,28.0,-100.00,NE,35,5.0,14.0,42,-99.99,,,-99.99,,2013-01-19 14:20:00,
2013-01-19 09:30:00,52.0,28.0,-100.00,NNE,30,4.0,11.0,39,-99.99,,,-99.99,,2013-01-19 14:30:00,
2013-01-19 09:40:00,54.0,28.0,-100.00,North,5,1.0,8.0,37,-99.99,,,-99.99,,2013-01-19 14:40:00,
2013-01-19 09:50:00,55.0,28.0,-100.00,ENE,60,2.0,6.0,35,-99.99,,,-99.99,,2013-01-19 14:50:00,
2013-01-19 10:00:00,55.0,27.0,-100.00,NNE,20,3.0,9.0,34,-99.99,,,-99.99,,2013-01-19 15:00:00,
2013-01-19 10:10:00,57.0,28.0,-100.00,NE,45,4.0,7.0,33,-99.99,,,-99.99,,2013-01-19 15:10:00,
2013-01-19 10:20:00,57.0,28.0,-100.00,NE,50,4.0,11.0,33,-99.99,,,-99.99,,2013-01-19 15:20:00,
2013-01-19 10:30:00,58.0,29.0,-100.00,NE,55,6.0,11.0,33,-99.99,,,-99.99,,2013-01-19 15:30:00,
2013-01-19 10:40:00,59.0,30.0,-100.00,NE,50,3.0,6.0,33,-99.99,,,-99.99,,2013-01-19 15:40:00,
2013-01-19 10:50:00,58.0,30.0,-100.00,NE,55,4.0,7.0,34,-99.99,,,-99.99,,2013-01-19 15:50:00,
2013-01-19 11:00:00,59.0,31.0,-100.00,ENE,65,4.0,10.0,35,-99.99,,,-99.99,,2013-01-19 16:00:00,
2013-01-19 11:10:00,60.0,32.0,-100.00,ENE,60,2.0,7.0,35,-99.99,,,-99.99,,2013-01-19 16:10:00,
2013-01-19 11:20:00,61.0,33.0,-100.00,ENE,65,6.0,9.0,34,-99.99,,,-99.99,,2013-01-19 16:20:00,
2013-01-19 11:30:00,60.0,32.0,-100.00,ENE,65,4.0,9.0,34,-99.99,,,-99.99,,2013-01-19 16:30:00,
2013-01-19 11:40:00,60.0,33.0,-100.00,ENE,65,4.0,11.0,36,-99.99,,,-99.99,,2013-01-19 16:40:00,
2013-01-19 11:50:00,60.0,33.0,-100.00,ENE,70,4.0,9.0,36,-99.99,,,-99.99,,2013-01-19 16:50:00,
2013-01-19 12:00:00,62.0,34.0,-100.00,SE,135,1.0,5.0,35,-99.99,,,-99.99,,2013-01-19 17:00:00,
2013-01-19 12:10:00,63.0,35.0,-100.00,NE,35,4.0,8.0,35,-99.99,,,-99.99,,2013-01-19 17:10:00,
2013-01-19 12:20:00,64.0,36.0,-100.00,ENE,65,4.0,8.0,35,-99.99,,,-99.99,,2013-01-19 17:20:00,
2013-01-19 12:30:00,65.0,37.0,-100.00,NE,55,4.0,9.0,35,-99.99,,,-99.99,,2013-01-19 17:30:00,
2013-01-19 12:40:00,66.0,37.0,-100.00,ENE,75,4.0,10.0,35,-99.99,,,-99.99,,2013-01-19 17:40:00,
2013-01-19 13:00:00,66.0,37.0,-100.00,ESE,105,1.0,7.0,34,-99.99,,,-99.99,,2013-01-19 18:00:00,
2013-01-19 13:10:00,66.0,37.0,-100.00,North,0,2.0,7.0,34,-99.99,,,-99.99,,2013-01-19 18:10:00,
2013-01-19 13:20:00,67.0,38.0,-100.00,ENE,65,1.0,9.0,34,-99.99,,,-99.99,,2013-01-19 18:20:00,
2013-01-19 13:30:00,68.0,38.0,-100.00,SE,135,1.0,7.0,33,-99.99,,,-99.99,,2013-01-19 18:30:00,
2013-01-19 13:50:00,66.0,39.0,-100.00,North,355,2.0,6.0,36,-99.99,,,-99.99,,2013-01-19 18:50:00,
2013-01-19 14:00:00,68.0,39.0,-100.00,NE,40,2.0,8.0,34,-99.99,,,-99.99,,2013-01-19 19:00:00,
2013-01-19 14:10:00,68.0,38.0,-100.00,WSW,245,2.0,7.0,34,-99.99,,,-99.99,,2013-01-19 19:10:00,
2013-01-19 14:20:00,68.0,39.0,-100.00,ENE,75,4.0,8.0,35,-99.99,,,-99.99,,2013-01-19 19:20:00,
2013-01-19 14:30:00,69.0,40.0,-100.00,ENE,60,4.0,8.0,35,-99.99,,,-99.99,,2013-01-19 19:30:00,
2013-01-19 14:40:00,69.0,39.0,-100.00,NE,35,0.0,6.0,34,-99.99,,,-99.99,,2013-01-19 19:40:00,
2013-01-19 14:50:00,69.0,40.0,-100.00,East,80,4.0,7.0,35,-99.99,,,-99.99,,2013-01-19 19:50:00,
2013-01-19 15:00:00,69.0,40.0,-100.00,East,90,4.0,8.0,34,-99.99,,,-99.99,,2013-01-19 20:00:00,
2013-01-19 15:10:00,68.0,40.0,-100.00,NE,50,2.0,7.0,36,-99.99,,,-99.99,,2013-01-19 20:10:00,
2013-01-19 15:20:00,69.0,40.0,-100.00,ENE,75,0.0,6.0,35,-99.99,,,-99.99,,2013-01-19 20:20:00,
2013-01-19 15:50:00,67.0,39.0,-100.00,East,85,4.0,8.0,36,-99.99,,,-99.99,,2013-01-19 20:50:00,
2013-01-19 16:00:00,68.0,41.0,-100.00,East,90,4.0,6.0,37,-99.99,,,-99.99,,2013-01-19 21:00:00,
2013-01-19 16:10:00,67.0,40.0,-100.00,ESE,120,5.0,10.0,37,-99.99,,,-99.99,,2013-01-19 21:10:00,
2013-01-19 16:20:00,65.0,40.0,-100.00,SE,125,3.0,8.0,39,-99.99,,,-99.99,,2013-01-19 21:20:00,
2013-01-19 16:30:00,64.0,40.0,-100.00,SSE,150,2.0,8.0,42,-99.99,,,-99.99,,2013-01-19 21:30:00,
2013-01-19 16:40:00,63.0,40.0,-100.00,SE,130,3.0,8.0,43,-99.99,,,-99.99,,2013-01-19 21:40:00,
2013-01-19 16:50:00,61.0,40.0,-100.00,SSE,155,4.0,8.0,46,-99.99,,,-99.99,,2013-01-19 21:50:00,
2013-01-19 17:00:00,60.0,41.0,-100.00,SE,135,1.0,8.0,49,-99.99,,,-99.99,,2013-01-19 22:00:00,
2013-01-19 17:10:00,59.0,42.0,-100.00,SSE,160,3.0,5.0,53,-99.99,,,-99.99,,2013-01-19 22:10:00,
2013-01-19 17:20:00,58.0,42.0,-100.00,SE,140,4.0,7.0,55,-99.99,,,-99.99,,2013-01-19 22:20:00,
2013-01-19 17:30:00,58.0,42.0,-100.00,SE,135,3.0,7.0,56,-99.99,,,-99.99,,2013-01-19 22:30:00,
2013-01-19 17:50:00,57.0,43.0,-100.00,ESE,120,4.0,6.0,60,-99.99,,,-99.99,,2013-01-19 22:50:00,
2013-01-19 18:00:00,57.0,43.0,-100.00,SE,140,4.0,6.0,61,-99.99,,,-99.99,,2013-01-19 23:00:00,
2013-01-19 18:10:00,56.0,44.0,-100.00,ESE,110,4.0,7.0,63,-99.99,,,-99.99,,2013-01-19 23:10:00,
2013-01-19 18:20:00,56.0,44.0,-100.00,ESE,115,2.0,4.0,65,-99.99,,,-99.99,,2013-01-19 23:20:00,
2013-01-19 18:30:00,55.0,44.0,-100.00,SE,130,3.0,6.0,67,-99.99,,,-99.99,,2013-01-19 23:30:00,
2013-01-19 18:40:00,55.0,45.0,-100.00,SSE,160,1.0,6.0,69,-99.99,,,-99.99,,2013-01-19 23:40:00,
2013-01-19 18:50:00,53.0,44.0,-100.00,NNE,20,0.0,2.0,72,-99.99,,,-99.99,,2013-01-19 23:50:00,
2013-01-19 19:00:00,53.0,45.0,-100.00,ESE,120,3.0,4.0,74,-99.99,,,-99.99,,2013-01-20 00:00:00,
2013-01-19 19:10:00,52.0,45.0,-100.00,East,95,0.0,4.0,76,-99.99,,,-99.99,,2013-01-20 00:10:00,
2013-01-19 19:20:00,51.0,45.0,-100.00,East,95,0.0,0.0,78,-99.99,,,-99.99,,2013-01-20 00:20:00,
2013-01-19 19:30:00,51.0,45.0,-100.00,East,95,1.0,1.0,80,-99.99,,,-99.99,,2013-01-20 00:30:00,
2013-01-19 19:40:00,50.0,45.0,-100.00,ENE,65,0.0,1.0,82,-99.99,,,-99.99,,2013-01-20 00:40:00,
2013-01-19 20:00:00,50.0,45.0,-100.00,ENE,65,0.0,0.0,85,-99.99,,,-99.99,,2013-01-20 01:00:00,
2013-01-19 20:10:00,50.0,46.0,-100.00,SW,230,0.0,1.0,86,-99.99,,,-99.99,,2013-01-20 01:10:00,
2013-01-19 20:20:00,49.0,45.0,-100.00,SW,225,0.0,0.0,87,-99.99,,,-99.99,,2013-01-20 01:20:00,
2013-01-19 20:30:00,48.0,45.0,-100.00,WSW,240,0.0,0.0,87,-99.99,,,-99.99,,2013-01-20 01:30:00,
2013-01-19 20:40:00,48.0,45.0,-100.00,SW,225,0.0,0.0,88,-99.99,,,-99.99,,2013-01-20 01:40:00,
2013-01-19 20:50:00,48.0,45.0,-100.00,WSW,240,0.0,0.0,89,-99.99,,,-99.99,,2013-01-20 01:50:00,
2013-01-19 21:00:00,48.0,45.0,-100.00,WSW,245,0.0,1.0,89,-99.99,,,-99.99,,2013-01-20 02:00:00,
2013-01-19 21:10:00,47.0,45.0,-100.00,WSW,245,1.0,2.0,90,-99.99,,,-99.99,,2013-01-20 02:10:00,
2013-01-19 21:20:00,48.0,45.0,-100.00,SSW,210,0.0,1.0,90,-99.99,,,-99.99,,2013-01-20 02:20:00,
2013-01-19 21:30:00,48.0,45.0,-100.00,WSW,240,0.0,1.0,90,-99.99,,,-99.99,,2013-01-20 02:30:00,
2013-01-19 21:40:00,47.0,45.0,-100.00,SW,225,0.0,1.0,90,-99.99,,,-99.99,,2013-01-20 02:40:00,
2013-01-19 22:00:00,47.0,44.0,-100.00,West,270,0.0,1.0,90,-99.99,,,-99.99,,2013-01-20 03:00:00,
2013-01-19 22:10:00,47.0,44.0,-100.00,WNW,285,1.0,2.0,90,-99.99,,,-99.99,,2013-01-20 03:10:00,
2013-01-19 22:20:00,47.0,44.0,-100.00,WSW,250,1.0,2.0,91,-99.99,,,-99.99,,2013-01-20 03:20:00,
2013-01-19 22:40:00,47.0,44.0,-100.00,WSW,255,0.0,1.0,91,-99.99,,,-99.99,,2013-01-20 03:40:00,
2013-01-19 22:50:00,47.0,44.0,-100.00,WSW,240,0.0,0.0,91,-99.99,,,-99.99,,2013-01-20 03:50:00,
2013-01-19 23:00:00,46.0,44.0,-100.00,WSW,250,0.0,1.0,91,-99.99,,,-99.99,,2013-01-20 04:00:00,
2013-01-19 23:10:00,46.0,44.0,-100.00,SW,225,0.0,1.0,91,-99.99,,,-99.99,,2013-01-20 04:10:00,
2013-01-19 23:20:00,45.0,43.0,-100.00,SW,215,0.0,0.0,91,-99.99,,,-99.99,,2013-01-20 04:20:00,
2013-01-19 23:30:00,45.0,43.0,-100.00,SW,230,0.0,1.0,92,-99.99,,,-99.99,,2013-01-20 04:30:00,
2013-01-19 23:40:00,45.0,43.0,-100.00,WNW,285,0.0,1.0,92,-99.99,,,-99.99,,2013-01-20 04:40:00,
2013-01-19 23:50:00,45.0,43.0,-100.00,WNW,285,0.0,1.0,93,-99.99,,,-99.99,,2013-01-20 04:50:00,